TimeCST,TemperatureF,Dew PointF,Humidity,Sea Level PressureIn,VisibilityMPH,Wind Direction,Wind SpeedMPH,Gust SpeedMPH,PrecipitationIn,Events,Conditions,WindDirDegrees,DateUTC
12:15 AM,37.4,32.0,81,30.19,10.0,SSE,6.9,-,N/A,,Clear,150,2013-03-03 06:15:00
12:35 AM,37.4,32.0,81,30.19,10.0,SSE,6.9,-,N/A,,Clear,150,2013-03-03 06:35:00
12:55 AM,37.4,30.2,75,30.17,10.0,SE,5.8,-,N/A,,Clear,140,2013-03-03 06:55:00
1:35 AM,37.4,30.2,75,30.17,10.0,SSE,6.9,-,N/A,,Clear,160,2013-03-03 07:35:00
1:55 AM,35.6,30.2,81,30.17,10.0,South,4.6,-,N/A,,Clear,170,2013-03-03 07:55:00
2:15 AM,35.6,30.2,81,30.16,10.0,SE,4.6,-,N/A,,Clear,130,2013-03-03 08:15:00
2:35 AM,35.6,30.2,81,30.15,10.0,SSE,4.6,-,N/A,,Clear,150,2013-03-03 08:35:00
2:55 AM,35.6,30.2,81,30.15,10.0,SSE,4.6,-,N/A,,Clear,150,2013-03-03 08:55:00
3:15 AM,35.6,30.2,81,30.13,10.0,SE,4.6,-,N/A,,Clear,130,2013-03-03 09:15:00
3:35 AM,35.6,30.2,81,30.12,10.0,SE,5.8,-,N/A,,Clear,140,2013-03-03 09:35:00
3:55 AM,35.6,30.2,81,30.12,10.0,SE,5.8,-,N/A,,Clear,140,2013-03-03 09:55:00
4:15 AM,35.6,30.2,81,30.11,10.0,SE,6.9,-,N/A,,Clear,130,2013-03-03 10:15:00
4:35 AM,33.8,30.2,87,30.10,10.0,ESE,5.8,-,N/A,,Clear,110,2013-03-03 10:35:00
4:55 AM,33.8,30.2,87,30.09,10.0,SE,8.1,-,N/A,,Clear,130,2013-03-03 10:55:00
5:15 AM,35.6,30.2,81,30.09,10.0,SE,5.8,-,N/A,,Clear,130,2013-03-03 11:15:00
5:55 AM,37.4,30.2,75,30.08,10.0,SSE,6.9,-,N/A,,Clear,150,2013-03-03 11:55:00
6:15 AM,37.4,30.2,75,30.08,10.0,SSE,8.1,-,N/A,,Clear,160,2013-03-03 12:15:00
6:55 AM,35.6,30.2,81,30.07,10.0,SSE,6.9,-,N/A,,Clear,160,2013-03-03 12:55:00
7:15 AM,35.6,30.2,81,30.07,10.0,SSE,6.9,-,N/A,,Clear,150,2013-03-03 13:15:00
7:35 AM,37.4,30.2,75,30.07,10.0,SSE,6.9,-,N/A,,Clear,150,2013-03-03 13:35:00
7:55 AM,39.2,30.2,70,30.07,10.0,South,8.1,-,N/A,,Clear,170,2013-03-03 13:55:00
8:15 AM,41.0,30.2,65,30.07,10.0,South,11.5,-,N/A,,Clear,180,2013-03-03 14:15:00
8:35 AM,42.8,32.0,66,30.07,10.0,South,11.5,-,N/A,,Clear,180,2013-03-03 14:35:00
8:55 AM,42.8,32.0,66,30.07,10.0,South,10.4,-,N/A,,Clear,170,2013-03-03 14:55:00
9:15 AM,44.6,32.0,61,30.06,10.0,South,10.4,-,N/A,,Clear,190,2013-03-03 15:15:00
9:35 AM,48.2,32.0,54,30.04,10.0,South,10.4,-,N/A,,Clear,190,2013-03-03 15:35:00
9:55 AM,50.0,32.0,50,30.04,10.0,South,9.2,-,N/A,,Clear,180,2013-03-03 15:55:00
10:15 AM,51.8,33.8,50,30.03,10.0,South,9.2,-,N/A,,Clear,180,2013-03-03 16:15:00
10:35 AM,53.6,33.8,47,30.02,10.0,South,8.1,-,N/A,,Clear,190,2013-03-03 16:35:00
10:55 AM,55.4,33.8,44,30.01,10.0,South,11.5,17.3,N/A,,Clear,180,2013-03-03 16:55:00
11:15 AM,59.0,32.0,36,30.00,10.0,SSW,11.5,-,N/A,,Clear,200,2013-03-03 17:15:00
11:35 AM,60.8,33.8,36,29.99,10.0,SSW,11.5,17.3,N/A,,Clear,200,2013-03-03 17:35:00
11:55 AM,60.8,33.8,36,29.97,10.0,SW,11.5,-,N/A,,Clear,220,2013-03-03 17:55:00
12:15 PM,62.6,33.8,34,29.96,10.0,SSW,13.8,18.4,N/A,,Clear,210,2013-03-03 18:15:00
12:35 PM,62.6,33.8,34,29.94,10.0,South,12.7,-,N/A,,Clear,190,2013-03-03 18:35:00
12:55 PM,64.4,33.8,32,29.92,10.0,South,13.8,-,N/A,,Clear,180,2013-03-03 18:55:00
1:15 PM,68.0,33.8,28,29.89,10.0,South,17.3,-,N/A,,Clear,170,2013-03-03 19:15:00
1:35 PM,68.0,35.6,30,29.88,10.0,South,15.0,-,N/A,,Clear,170,2013-03-03 19:35:00
1:55 PM,69.8,35.6,28,29.86,10.0,South,16.1,20.7,N/A,,Clear,180,2013-03-03 19:55:00
2:35 PM,71.6,35.6,27,29.81,10.0,SSE,17.3,23.0,N/A,,Clear,160,2013-03-03 20:35:00
2:55 PM,73.4,37.4,27,29.80,10.0,SSE,16.1,20.7,N/A,,Clear,160,2013-03-03 20:55:00
3:35 PM,73.4,32.0,22,29.77,10.0,South,24.2,-,N/A,,Clear,190,2013-03-03 21:35:00
3:55 PM,75.2,33.8,22,29.76,10.0,South,20.7,26.5,N/A,,Clear,190,2013-03-03 21:55:00
4:15 PM,75.2,33.8,22,29.75,10.0,South,21.9,25.3,N/A,,Clear,180,2013-03-03 22:15:00
4:35 PM,77.0,33.8,21,29.74,10.0,South,18.4,24.2,N/A,,Clear,190,2013-03-03 22:35:00
4:55 PM,77.0,32.0,19,29.73,10.0,South,20.7,-,N/A,,Clear,190,2013-03-03 22:55:00
5:15 PM,73.4,32.0,22,29.72,10.0,South,20.7,25.3,N/A,,Clear,190,2013-03-03 23:15:00
5:35 PM,73.4,32.0,22,29.72,10.0,South,17.3,-,N/A,,Clear,180,2013-03-03 23:35:00
5:55 PM,71.6,33.8,25,29.72,10.0,South,17.3,-,N/A,,Clear,180,2013-03-03 23:55:00
6:15 PM,69.8,33.8,27,29.71,10.0,South,15.0,-,N/A,,Clear,180,2013-03-04 00:15:00
6:35 PM,68.0,33.8,28,29.70,10.0,South,16.1,-,N/A,,Clear,170,2013-03-04 00:35:00
6:55 PM,68.0,32.0,26,29.70,10.0,SSE,16.1,-,N/A,,Clear,160,2013-03-04 00:55:00
7:15 PM,66.2,35.6,32,29.70,10.0,SSE,15.0,25.3,N/A,,Clear,160,2013-03-04 01:15:00
7:35 PM,64.4,35.6,34,29.70,10.0,SSE,17.3,24.2,N/A,,Clear,160,2013-03-04 01:35:00
7:55 PM,62.6,35.6,37,29.69,10.0,SSE,20.7,26.5,N/A,,Clear,150,2013-03-04 01:55:00
8:15 PM,62.6,35.6,37,29.68,10.0,SSE,20.7,25.3,N/A,,Clear,160,2013-03-04 02:15:00
8:35 PM,62.6,35.6,37,29.68,10.0,SSE,13.8,23.0,N/A,,Clear,160,2013-03-04 02:35:00
8:55 PM,60.8,35.6,39,29.68,10.0,SSE,15.0,20.7,N/A,,Clear,160,2013-03-04 02:55:00
9:15 PM,60.8,35.6,39,29.68,10.0,SSE,17.3,24.2,N/A,,Clear,160,2013-03-04 03:15:00
9:35 PM,59.0,35.6,42,29.67,10.0,SSE,16.1,-,N/A,,Clear,160,2013-03-04 03:35:00
9:55 PM,59.0,35.6,42,29.67,10.0,SSE,16.1,21.9,N/A,,Clear,160,2013-03-04 03:55:00
10:15 PM,59.0,35.6,42,29.66,10.0,SSE,17.3,21.9,N/A,,Clear,160,2013-03-04 04:15:00
10:35 PM,59.0,35.6,42,29.66,10.0,SSE,15.0,19.6,N/A,,Clear,160,2013-03-04 04:35:00
10:55 PM,59.0,35.6,42,29.65,10.0,SSE,15.0,-,N/A,,Clear,160,2013-03-04 04:55:00
11:15 PM,59.0,33.8,39,29.64,10.0,SSE,15.0,-,N/A,,Clear,160,2013-03-04 05:15:00
11:35 PM,59.0,33.8,39,29.63,10.0,SSE,15.0,-,N/A,,Clear,160,2013-03-04 05:35:00
11:55 PM,57.2,33.8,41,29.63,10.0,South,11.5,-,N/A,,Clear,170,2013-03-04 05:55:00